Wind_Speed
14 13 13 12 11 10 8 8 7 7 6 6 5 5 5 5 6 5 4 4 3 3 3 3 4 4 5 5 6 6 10 9
13 12 11 10 10 9 7 7 6 5 4 3 2 2 2 2 1 2 3 4 6 6 6 6 7 8 9 9 9 10 11 13
10 9 10 11 9 9 7 6 4 3 1 2 3 4 4 4 6 7 7 7 7 8 9 10 10 10 11 12 13 14 14 14
10 10 12 10 9 9 8 7 5 3 2 1 1 2 2 4 4 5 8 9 8 9 10 12 13 14 14 14 13 14 13 13
11 10 10 10 10 12 9 7 6 4 6 4 3 2 5 5 3 4 3 3 5 7 6 8 11 14 16 17 17 17 16 16
13 12 11 11 12 13 12 12 10 9 8 8 6 6 6 6 5 6 5 5 5 6 7 8 9 11 12 15 17 18 20 21
13 12 12 12 13 15 14 15 14 14 13 10 9 8 8 8 7 6 7 7 8 8 9 9 10 11 11 12 13 12 13 14
11 12 12 13 16 15 15 14 14 12 11 11 11 11 10 10 10 10 9 9 9 9 9 9 9 9 10 10 11 11 13 15
10 13 15 17 20 19 18 17 14 14 13 12 10 11 13 13 14 14 14 13 12 12 11 10 12 11 12 10 11 12 13 13
10 16 19 21 21 22 22 22 22 21 20 18 16 17 16 16 17 17 16 16 16 16 17 16 16 15 12 15 17 17 23 23
12 19 21 22 22 23 24 23 24 23 23 23 21 21 21 22 22 21 20 21 21 21 21 22 22 16 14 16 21 25 23 25
15 19 22 22 23 23 24 25 24 24 24 24 22 22 22 23 23 23 23 24 25 23 23 25 27 16 11 18 26 26 23 27
15 20 23 23 23 23 24 26 24 24 24 21 23 23 23 22 22 23 25 28 28 26 25 28 34 25 10 10 7 11 22 23
12 16 20 18 18 20 21 25 24 23 22 23 22 22 22 22 22 25 24 26 28 29 27 24 27 33 11 6 4 4 21 15
13 14 18 20 22 24 23 23 21 21 21 22 21 20 22 22 21 23 24 26 28 27 26 26 23 23 30 11 3 2 13 9
14 16 18 21 22 23 20 22 23 20 20 19 19 19 21 22 21 21 23 25 26 26 24 26 26 24 12 22 15 13 3 4
16 17 18 19 19 20 22 23 21 18 18 19 18 18 20 21 20 21 22 24 23 22 23 24 24 23 23 15 14 7 17 2
18 18 18 18 19 19 19 20 18 16 16 17 17 17 18 19 19 19 22 22 23 21 20 20 20 20 19 19 17 7 8 5
19 19 19 18 18 17 17 17 15 15 14 14 15 15 15 16 17 17 18 20 22 21 20 19 18 18 18 17 15 15 15 13
21 20 20 18 16 15 14 15 15 14 12 13 13 13 14 13 14 14 15 16 21 21 21 19 17 15 15 15 15 15 14 13
Wind_Direction
120 127 132 132 132 131 133 131 128 121 108 93 85 79 80 77 79 67 50 34 19 4 337 309 294 295 297 296 295 299 301 306
111 117 124 128 128 127 124 115 109 102 91 68 45 47 41 14 11 17 4 353 351 335 322 314 310 307 302 299 297 292 295 304
102 102 122 110 118 121 119 117 117 122 104 24 29 13 341 317 310 312 314 318 326 328 319 313 306 299 301 306 306 304 302 303
91 102 113 129 134 144 144 147 143 122 109 61 67 2 315 298 297 302 298 298 305 310 312 312 308 304 303 303 302 307 309 304
80 101 119 125 110 145 122 115 126 96 64 73 98 82 62 72 58 54 30 344 331 328 312 311 310 301 295 298 300 300 299 300
77 96 115 118 121 120 113 101 92 81 61 54 55 53 46 42 40 31 31 3 353 357 350 339 330 342 334 308 298 295 297 301
79 89 102 116 117 112 103 91 82 73 60 45 37 43 43 44 39 32 22 7 358 345 335 325 320 321 325 337 342 327 315 318
89 90 98 112 110 105 94 86 77 65 59 56 63 58 53 54 50 41 33 23 14 7 1 359 345 330 316 314 314 316 326 345
105 111 108 105 101 95 88 82 79 74 69 65 66 59 56 56 56 52 47 41 41 37 34 27 11 8 357 353 351 351 14 48
110 119 116 108 100 93 87 82 79 76 74 72 69 67 64 64 60 54 49 47 47 39 32 27 21 15 11 23 35 66 70 59
108 125 120 112 103 95 88 82 78 75 75 74 74 71 69 68 65 60 56 55 53 47 41 33 23 22 27 45 72 74 67 46
103 133 128 121 114 103 93 86 82 79 75 74 75 73 70 70 66 63 59 58 56 54 49 42 30 17 41 86 82 65 57 44
107 126 140 131 122 113 99 89 85 81 78 78 74 72 68 71 70 66 62 58 54 53 53 45 35 30 36 64 74 56 53 39
112 126 141 140 128 116 107 98 89 86 83 76 73 70 70 71 70 65 60 59 56 51 50 53 50 41 32 23 7 358 5 25
111 119 138 135 128 122 113 106 96 86 80 78 73 74 72 70 68 65 62 58 59 55 54 52 53 55 52 53 38 352 325 342
119 126 132 134 136 130 127 116 102 93 90 88 81 74 71 70 69 65 64 59 58 58 55 56 52 48 48 51 69 59 356 323
129 129 126 130 131 128 124 112 110 106 99 91 86 78 72 69 71 70 66 60 54 52 53 53 52 56 49 39 34 33 20 339
134 130 127 126 130 128 125 122 124 119 106 96 89 83 76 71 68 65 62 58 50 48 50 50 49 49 47 45 41 31 357 356
141 136 130 134 130 128 133 133 132 120 108 98 92 87 81 74 67 67 65 55 50 46 46 43 43 41 36 33 33 25 9 355
151 140 133 140 137 134 136 135 127 117 112 106 98 90 82 77 69 69 70 56 46 42 43 43 40 38 35 34 25 11 8 15
Height
819 819 820 820 821 822 823 824 824 825 826 826 826 825 825 824 824 824 824 823 823 823 824 824 824 824 824 824 824 824 822 822
821 821 820 822 822 823 825 826 826 827 827 827 826 826 826 825 825 824 825 825 825 825 825 824 824 824 824 824 823 822 823 822
823 822 821 823 823 824 826 826 827 826 827 827 827 827 826 826 826 825 825 825 825 825 825 824 824 823 823 823 823 822 821 821
824 823 822 822 823 824 826 826 827 827 826 826 827 827 826 825 825 824 825 825 824 824 823 823 823 823 822 822 821 821 820 820
825 824 824 824 823 825 827 826 827 828 827 826 827 827 826 825 824 823 823 823 823 822 821 822 822 821 820 820 820 820 819 819
827 826 826 826 825 826 828 828 828 829 829 828 828 828 827 826 825 824 823 823 822 822 821 821 820 820 819 818 817 817 817 817
829 830 829 828 827 828 829 828 829 830 829 829 829 829 828 827 826 825 824 823 822 821 820 819 818 818 818 817 816 815 814 814
830 832 833 831 829 830 830 830 830 831 830 831 830 830 829 828 827 825 824 823 821 821 819 818 817 816 816 816 815 815 814 812
832 834 835 835 833 833 833 832 832 832 832 832 832 831 831 830 829 827 825 823 822 821 819 817 817 815 816 814 813 813 813 810
835 835 835 836 837 836 837 836 835 835 834 833 833 833 832 831 830 830 827 825 822 821 819 818 815 814 814 814 814 812 813 812
837 837 836 837 839 840 840 841 839 839 838 837 836 835 834 833 832 832 830 827 823 822 821 819 815 812 813 814 814 814 814 814
837 839 838 840 841 843 844 843 843 843 842 841 840 839 837 835 836 833 833 831 827 824 824 823 819 814 814 814 815 816 816 816
840 841 842 843 843 844 845 845 847 846 845 846 843 842 840 838 840 837 836 834 832 829 827 825 821 816 814 816 817 817 818 818
844 842 845 846 845 845 846 848 850 851 851 847 846 845 845 843 843 839 839 837 833 832 831 830 829 824 822 822 823 819 820 822
845 846 846 847 847 846 849 850 854 853 853 850 851 850 848 846 846 842 843 841 837 837 836 835 834 831 829 830 832 835 829 822
847 849 849 850 850 848 851 852 854 856 856 854 856 854 850 848 848 848 846 845 842 840 841 839 837 834 833 835 836 838 837 830
848 851 851 852 851 849 854 853 857 859 858 855 858 856 853 853 852 850 848 846 847 846 843 842 842 840 838 838 837 838 837 835
849 851 852 853 853 854 855 855 860 861 860 858 858 856 857 856 855 854 851 850 849 848 846 845 843 843 842 841 841 841 839 838
849 851 852 856 856 857 858 859 861 860 860 860 859 860 859 858 857 856 854 856 852 851 848 847 845 844 844 843 842 841 841 838
850 850 852 856 858 860 861 860 859 859 860 861 863 862 860 860 859 859 857 858 854 854 851 850 848 847 845 844 842 842 841 838